1998-067VS

Last updated on Tue Nov 07 2023 00:02:07 GMT+0000 (Coordinated Universal Time)

1 57314U 98067VS 23310.51673562 .06312383 12009-4 23731-2 0 9994 2 57314 51.6145 328.7216 0005863 30.4987 329.6372 16.23553933 19299

Satellite not in orbit